{"data":{"norad_id":68981,"intl_designator":"2026-100B","name":"IRIDE-MS2-HEO-7","alt_names":[],"object_type":"PAYLOAD","status":"ACTIVE","operator":null,"country":"IT","launch_date":"2026-05-03","launch_site_code":"AFWTR","launch_vehicle":null,"mission":null,"orbit_class":"UNKNOWN","rcs_meters":null,"size_class":null,"mass_kg":null,"dimensions":null,"purposes":[],"wikipedia_slug":null,"has_3d_model":false,"image_url":null,"decayed_at":null,"tle_current":{"epoch":"2026-09-20T04:22:19.620192Z","epoch_age_seconds":46870,"freshness":"FRESH","line1":"1 68981U 26100B   26263.18217153  .00000922  00000+0  98270-4 0  9990","line2":"2 68981  97.7227 158.6580 0004707 175.0804 185.0461 14.91222967 20857","mean_motion":14.91222967,"eccentricity":0.0004707,"inclination_deg":97.7227,"raan_deg":158.658,"arg_perigee_deg":175.0804,"mean_anomaly_deg":185.0461,"bstar":9.827e-5,"rev_number":2085,"period_min":96.565036340404,"perigee_km":590.83920350377,"apogee_km":597.40288722767,"semimajor_km":6972.2580453657,"source":"CELESTRAK","updated_at":"2026-09-20T09:00:24.597502Z"}}}